Teterboro, NJ

11:24 AM EST on January 20, 2017 (GMT -0500)
Teterboro

Weather History for KTEB - March, 2014

Change the Weather History Date:

Monday, March 3, 2014

  Actual Average Record
Temperature  
Mean Temperature 26 °F -  
Max Temperature 32 °F 43 °F 61 °F (2002)
Min Temperature 18 °F 28 °F 12 °F (2003)
Degree Days  
Heating Degree Days 40    
Moisture  
Dew Point 5 °F    
Average Humidity 47    
Maximum Humidity 75    
Minimum Humidity 34    
Precipitation  
Precipitation 0.01 in - - ()
Snow  
Snow 0.00 in - - ()
Snow Depth 3.00 in    
Sea Level Pressure  
Sea Level Pressure 30.17 in    
Wind  
Wind Speed 10 mph (NNW)    
Max Wind Speed 16 mph    
Max Gust Speed 26 mph    
Visibility 8 miles    
Events Snow    
Averages and records for this station are not official NWS values.
T = Trace of Precipitation, MM = Missing Value Source: NWS Daily Summary

Daily Weather History Graph

Daily Weather History Graph

Search for Another Location

Airport or City:

Trip Planner

Search our weather history database for the weather conditions in past years. The results will help you decide how hot, cold, wet, or windy it might be!

Date:

Astronomy

Mar. 03, 2014 Rise Set
Actual Time 6:27 AM EST 5:49 PM EST
Civil Twilight 5:59 AM EST 6:17 PM EST
Nautical Twilight 5:28 AM EST 6:48 PM EST
Astronomical Twilight 4:56 AM EST 7:20 PM EST
Moon 7:32 AM EST (3/3) 8:51 PM EST (3/3)
Length of Visible Light 12h 17m
Length of Day
11h 22m
Waxing Crescent, 8% of the Moon is Illuminated
Mar 3
Waxing Crescent
Mar 8
First Quarter
Mar 16
Full
Mar 23
Last Quarter
Mar 30
New

Hourly Weather History & Observations

Time (EST) Temp. Windchill Dew Point Humidity Pressure Visibility Wind Dir Wind Speed Gust Speed Precip Events Conditions
12:51 AM 32.0 °F 22.5 °F 15.1 °F 50% 30.02 in 10.0 mi North 12.7 mph 17.3 mph N/A   Overcast
1:51 AM 30.0 °F 20.5 °F 12.9 °F 49% 30.03 in 10.0 mi North 11.5 mph - N/A   Overcast
2:51 AM 27.0 °F 17.3 °F 16.0 °F 63% 30.04 in 3.0 mi North 10.4 mph - 0.00 in Snow Light Snow
3:11 AM 26.6 °F 18.2 °F 15.8 °F 64% 30.04 in 4.0 mi NNE 8.1 mph - 0.00 in Snow Light Snow
3:28 AM 26.6 °F 19.1 °F 17.6 °F 69% 30.04 in 1.8 mi North 6.9 mph 16.1 mph 0.00 in Snow Light Snow
3:42 AM 24.8 °F 14.6 °F 17.6 °F 74% 30.05 in 2.0 mi North 10.4 mph - 0.00 in Snow Light Snow
3:51 AM 25.0 °F 15.5 °F 18.0 °F 75% 30.05 in 2.0 mi North 9.2 mph - 0.01 in Snow Light Snow
3:56 AM 24.8 °F 16.1 °F 17.6 °F 74% 30.06 in 4.0 mi North 8.1 mph - 0.00 in Snow Light Snow
4:51 AM 24.1 °F 12.5 °F 9.0 °F 53% 30.09 in 8.0 mi North 12.7 mph - 0.00 in Snow Light Snow
5:51 AM 23.0 °F 10.6 °F 3.0 °F 42% 30.10 in 8.0 mi NNW 13.8 mph 26.5 mph 0.00 in   Overcast
6:51 AM 21.9 °F 9.2 °F 1.9 °F 42% 30.14 in 10.0 mi North 13.8 mph 24.2 mph N/A   Overcast
7:51 AM 21.0 °F 7.1 °F 3.0 °F 46% 30.16 in 10.0 mi NNW 16.1 mph 20.7 mph N/A   Overcast
8:51 AM 21.0 °F 9.3 °F 1.0 °F 42% 30.17 in 10.0 mi NNW 11.5 mph - N/A   Overcast
9:51 AM 21.0 °F 10.6 °F 1.9 °F 44% 30.18 in 10.0 mi NW 9.2 mph - N/A   Scattered Clouds
10:51 AM 21.0 °F 9.3 °F 1.0 °F 42% 30.19 in 10.0 mi NW 11.5 mph - N/A   Partly Cloudy
11:51 AM 21.0 °F 9.3 °F -2.0 °F 36% 30.19 in 10.0 mi NNW 11.5 mph - N/A   Mostly Cloudy
12:51 PM 19.9 °F 7.9 °F -2.0 °F 38% 30.19 in 10.0 mi NW 11.5 mph - N/A   Mostly Cloudy
1:51 PM 21.0 °F 9.3 °F -0.9 °F 38% 30.17 in 10.0 mi NNW 11.5 mph - N/A   Clear
2:51 PM 21.9 °F 11.0 °F -0.9 °F 37% 30.20 in 10.0 mi NNW 10.4 mph - N/A   Partly Cloudy
3:51 PM 23.0 °F 13.9 °F -0.0 °F 37% 30.21 in 10.0 mi NW 8.1 mph - N/A   Clear
4:51 PM 24.1 °F 15.2 °F -0.0 °F 35% 30.22 in 10.0 mi NNW 8.1 mph - N/A   Clear
5:51 PM 24.1 °F 15.2 °F -0.9 °F 34% 30.25 in 10.0 mi NNW 8.1 mph - N/A   Clear
6:51 PM 23.0 °F 15.8 °F -0.0 °F 37% 30.27 in 10.0 mi NNW 5.8 mph - N/A   Clear
7:51 PM 21.9 °F 14.5 °F 1.0 °F 40% 30.29 in 10.0 mi NE 5.8 mph - N/A   Clear
8:51 PM 21.0 °F 13.4 °F 1.9 °F 44% 30.31 in 10.0 mi NNE 5.8 mph - N/A   Clear
9:51 PM 21.0 °F 10.6 °F -2.0 °F 36% 30.32 in 10.0 mi North 9.2 mph - N/A   Clear
10:51 PM 19.0 °F 10.0 °F -0.0 °F 43% 30.34 in 10.0 mi NNW 6.9 mph - N/A   Clear
11:51 PM 18.0 °F 8.7 °F -2.9 °F 40% 30.34 in 10.0 mi NNW 6.9 mph - N/A   Clear